This is the latest recevied weather packets stored in our database for station/object KN6ZYR. If no packets are shown the sender has not sent any weather packets the latest 10 day(s).
| Time | Temp. | Humidity | Pressure | Rain* | Wind** | Luminosity | Snow |
|---|---|---|---|---|---|---|---|
| 1777941404 | 16.67° C | 33% | 1013 hPa | 0 mm | - | 44 W/m² | - |
| 1777941102 | 17.22° C | 31% | 1012.8 hPa | 0 mm | - | 53 W/m² | - |
| 1777940797 | 17.22° C | 31% | 1012.6 hPa | 0 mm | - | 58 W/m² | - |
| 1777940496 | 17.78° C | 30% | 1012.6 hPa | 0 mm | - | 90 W/m² | - |
| 1777940192 | 17.78° C | 30% | 1012.4 hPa | 0 mm | - | 98 W/m² | - |
| 1777939890 | 17.78° C | 29% | 1012.4 hPa | 0 mm | - | 126 W/m² | - |
| 1777939586 | 18.89° C | 27% | 1012.4 hPa | 0 mm | - | 143 W/m² | - |
| 1777939285 | 18.89° C | 26% | 1012.3 hPa | 0 mm | - | 143 W/m² | - |
| 1777938981 | 18.89° C | 25% | 1012.3 hPa | 0 mm | - | 153 W/m² | - |
| 1777938677 | 19.44° C | 25% | 1011.8 hPa | 0 mm | - | 139 W/m² | - |
| 1777938374 | 19.44° C | 26% | 1012 hPa | 0 mm | - | 135 W/m² | - |
| 1777938072 | 19.44° C | 25% | 1012 hPa | 0 mm | - | 141 W/m² | - |
| 1777937767 | 20° C | 26% | 1012 hPa | 0 mm | - | 169 W/m² | - |
| 1777937464 | 19.44° C | 25% | 1012.1 hPa | 0 mm | - | 202 W/m² | - |
| 1777937161 | 20° C | 25% | 1012.1 hPa | 0 mm | - | 480 W/m² | - |
| 1777936858 | 20° C | 25% | 1012.2 hPa | 0 mm | - | 523 W/m² | - |
| 1777936555 | 21.11° C | 23% | 1012.2 hPa | 0 mm | - | 525 W/m² | - |
| 1777936251 | 19.44° C | 25% | 1012.2 hPa | 0 mm | - | 538 W/m² | - |
| 1777935947 | 20° C | 24% | 1012.3 hPa | 0 mm | - | 479 W/m² | - |
| 1777935646 | 20.56° C | 25% | 1012.4 hPa | 0 mm | - | 482 W/m² | - |
| 1777935343 | 20.56° C | 24% | 1012.6 hPa | 0 mm | - | 498 W/m² | - |
| 1777935040 | 19.44° C | 26% | 1012.3 hPa | 0 mm | - | 591 W/m² | - |
| 1777934736 | 19.44° C | 25% | 1012.4 hPa | 0 mm | - | 484 W/m² | - |
| 1777934434 | 19.44° C | 26% | 1012.6 hPa | 0 mm | - | 626 W/m² | - |
| 1777934131 | 19.44° C | 27% | 1012.8 hPa | 0 mm | - | 645 W/m² | - |
* Rain latest hour (hover to see other rain measurements)
** Current wind speed in m/s (hover to see current wind gust speed)